Regional Weather Roundup
Issued by NWS

Home | Current Version | Previous Version | Graphics & Text | Print | Product List | Glossary On
Versions: 1 2 3 4 5 6 7 8 9 10 11 12 13 14 15 16 17 18 19 20 21 22 23 24 25 26 27 28 29 30 31 32 33 34 35 36 37 38 39 40 41 42 43 44 45 46 47 48 49 50
601
ASUS44 KLIX 210010
RWRLA
LOUISIANA WEATHER ROUNDUP
NATIONAL WEATHER SERVICE NEW ORLEANS LA
600 PM CST SAT DEC 20 2014

NOTE: "FAIR" INDICATES FEW OR NO CLOUDS BELOW 12,000 FEET WITH NO
      SIGNIFICANT WEATHER AND/OR OBSTRUCTIONS TO VISIBILITY.
      SKY/WX - SKY CONDITION AND SIGNIFICANT WEATHER.
      TMP - AIR TEMPERATURE.    DP   - DEWPOINT TEMPERATURE.
      RH  - RELATIVE HUMIDITY.  PRES - PRESSURE.
      HX  - HEAT INDEX.         WCI  - WIND CHILL INDEX.

*  THESE STATIONS ARE NOT NWS OR FAA STATIONS AND ARE NOT UNDER
   NWS QUALITY CONTROL.

LAZ040-048-061>063-065-066-069-210100-
SOUTHEAST LOUISIANA

CITY           SKY/WX    TMP DP  RH WIND       PRES   REMARKS
N.O. AUDUBON     N/A     53  50  90 MISG        N/A
6HR MIN TEMP:  52; 6HR MAX TEMP:  56;

N.O. INTL ARPT CLOUDY    52  47  83 NE15      30.13S
6HR MIN TEMP:  52; 6HR MAX TEMP:  53;

N.O. LAKEFRONT CLOUDY    54  48  80 N15       30.14R
6HR MIN TEMP:  54; 6HR MAX TEMP:  56;

N.O. DOWNTOWN* CLOUDY    52  45  76 N9        30.14R
6HR MIN TEMP:  52; 6HR MAX TEMP:  54;

SLIDELL        CLOUDY    52  46  80 N9        30.13S
6HR MIN TEMP:  52; 6HR MAX TEMP:  54;

BATON ROUGE    PTCLDY    48  45  89 NE8       30.15S
6HR MIN TEMP:  48; 6HR MAX TEMP:  51;

BOOTHVILLE     CLOUDY    55  51  86 NE9       30.11R
6HR MIN TEMP:  54; 6HR MAX TEMP:  56;

BELLE CHASSE   CLOUDY    53  49  86 N8        30.12R
6HR MIN TEMP:  53; 6HR MAX TEMP:  56;

BOGALUSA*        N/A     52  46  81 NE7       30.17S
6HR MIN TEMP:  51; 6HR MAX TEMP:  53;

GALLIANO*      CLOUDY    55  51  86 MISG      30.11R
6HR MIN TEMP:  55; 6HR MAX TEMP:  57;

NEW ROADS*     FAIR      49  46  89 CALM      30.15S
6HR MIN TEMP:  49; 6HR MAX TEMP:  54;

GONZALES*      CLOUDY    50  50  99 N8        30.14R
6HR MIN TEMP:  50; 6HR MAX TEMP:  51;

HAMMOND*       NOT AVBL
HOUMA*         CLOUDY    52  48  87 N10       30.12R
PORT FOURCHON* CLOUDY    55  52  88 NE15G22   30.13R

$$

LAZ041-044-053-054-210100-
SOUTHWEST LOUISIANA

CITY           SKY/WX    TMP DP  RH WIND       PRES   REMARKS
LAKE CHARLES   PTCLDY    52  46  80 NE6       30.14R
6HR MIN TEMP:  52; 6HR MAX TEMP:  61;

LAFAYETTE      PTCLDY    50  46  86 CALM      30.14S
6HR MIN TEMP:  49; 6HR MAX TEMP:  51;

PATTERSON      CLOUDY    50  46  87 NE13      30.14S
6HR MIN TEMP:  50; 6HR MAX TEMP:  52;

SALT POINT       N/A     54  49  83 VRB7      30.12R
6HR MIN TEMP:  54; 6HR MAX TEMP:  56;

NEW IBERIA     CLOUDY    52  47  83 NE9       30.15R
6HR MIN TEMP:  51; 6HR MAX TEMP:  52;

CHENAULT AIRPK CLEAR     54  46  76 N3        30.15R

$$

LAZ027-028-210100-
CENTRAL LOUISIANA

CITY           SKY/WX    TMP DP  RH WIND       PRES   REMARKS
FORT POLK      MOCLDY    48  44  87 N7        30.15F
6HR MIN TEMP:  48; 6HR MAX TEMP:  55;

ALEXANDRIA INT MOCLDY    50  44  80 N5        30.15R
6HR MIN TEMP:  49; 6HR MAX TEMP:  56; 6HR PCP: TRACE;

ALEXANDRIA     MOCLDY    46  45  96 CALM      30.16R
6HR MIN TEMP:  46; 6HR MAX TEMP:  58;


$$

LAZ001-002-210100-
NORTHWEST LOUISIANA

CITY           SKY/WX    TMP DP  RH WIND       PRES   REMARKS
SHREVEPORT     PTCLDY    44  41  89 E3        30.19F
6HR MIN TEMP:  43; 6HR MAX TEMP:  47;

BARKSDALE AFB  NOT AVBL
DTN SHREVEPORT PTCLDY    44  39  82 CALM      30.20F
6HR MIN TEMP:  44; 6HR MAX TEMP:  46;


$$

LAZ014-016-210100-
NORTHEAST LOUISIANA

CITY           SKY/WX    TMP DP  RH WIND       PRES   REMARKS
MONROE         CLEAR     47  40  76 N5        30.20R
6HR MIN TEMP:  47; 6HR MAX TEMP:  57;

TALLULAH       CLEAR     50  40  68 N6        30.18R
6HR MIN TEMP:  48; 6HR MAX TEMP:  59;


$$




USA.gov is the U.S. government's official web portal to all federal, state and local government web resources and services.